Lawrence, KS

2:40 PM CDT on September 25, 2017 (GMT -0500)
Lawrence Municipal

Weather History for KLWC - August, 2013

Change the Weather History Date:

Saturday, August 31, 2013

  Actual Average Record
Temperature  
Mean Temperature 84 °F 74 °F  
Max Temperature 96 °F 87 °F 108 °F (2000)
Min Temperature 71 °F 61 °F 57 °F (2006)
Degree Days  
Heating Degree Days 0 0  
Month to date heating degree days 0 0  
Since 1 June heating degree days 13 11  
Since 1 July heating degree days 0 3  
Cooling Degree Days 19 9  
Month to date cooling degree days 378 383  
Year to date cooling degree days 1221 1191  
Since 1 June cooling degree days 1094 1072  
Growing Degree Days 34 (Base 50)    
Moisture  
Dew Point 71 °F    
Average Humidity 65    
Maximum Humidity 90    
Minimum Humidity 40    
Precipitation  
Precipitation T in 0.14 in 2.45 in (2003)
Month to date precipitation 3.25 4.33  
Year to date precipitation 20.28 27.86  
Sea Level Pressure  
Sea Level Pressure 29.81 in    
Wind  
Wind Speed 3 mph (SSE)    
Max Wind Speed 15 mph    
Max Gust Speed 18 mph    
Visibility 10 miles    
Events Rain , Thunderstorm    
T = Trace of Precipitation, MM = Missing Value Source: NWS Daily Summary

Daily Weather History Graph

Daily Weather History Graph

Search for Another Location

Airport or City:

Trip Planner

Search our weather history database for the weather conditions in past years. The results will help you decide how hot, cold, wet, or windy it might be!

Date:

Astronomy

Aug. 31, 2013 Rise Set
Actual Time 6:49 AM CDT 7:52 PM CDT
Civil Twilight 6:21 AM CDT 8:19 PM CDT
Nautical Twilight 5:48 AM CDT 8:52 PM CDT
Astronomical Twilight 5:14 AM CDT 9:26 PM CDT
Moon 2:20 AM CDT (8/31) 4:50 PM CDT (8/31)
Length of Visible Light 13h 58m
Length of Day
13h 03m
Waning Crescent, 21% of the Moon is Illuminated
Aug 31
Waning Crescent
Sep 5
New
Sep 12
First Quarter
Sep 19
Full
Sep 26
Last Quarter

Hourly Weather History & Observations

Time (CDT) Temp. Heat Index Dew Point Humidity Pressure Visibility Wind Dir Wind Speed Gust Speed Precip Events Conditions
12:52 AM 80.1 °F 83.2 °F 70.0 °F 71% 29.82 in 10.0 mi Calm Calm - N/A   Clear
1:52 AM 75.9 °F - 70.0 °F 82% 29.82 in 10.0 mi SSE 4.6 mph - N/A   Clear
2:52 AM 75.0 °F - 70.0 °F 84% 29.80 in 10.0 mi Calm Calm - N/A   Clear
3:52 AM 75.0 °F - 70.0 °F 84% 29.79 in 10.0 mi Calm Calm - N/A   Clear
4:52 AM 73.9 °F - 69.1 °F 85% 29.81 in 10.0 mi NW 5.8 mph - N/A   Clear
5:52 AM 73.0 °F - 69.1 °F 87% 29.83 in 10.0 mi Calm Calm - N/A   Partly Cloudy
6:52 AM 73.0 °F - 69.1 °F 87% 29.83 in 9.0 mi SSW 3.5 mph - N/A   Partly Cloudy
7:52 AM 75.9 °F - 71.1 °F 85% 29.83 in 9.0 mi SSE 3.5 mph - N/A   Partly Cloudy
8:52 AM 81.0 °F 85.8 °F 73.0 °F 77% 29.85 in 10.0 mi Calm Calm - N/A   Clear
9:52 AM 84.0 °F 89.6 °F 72.0 °F 67% 29.86 in 10.0 mi NNW 4.6 mph - N/A   Partly Cloudy
10:52 AM 86.0 °F 95.1 °F 75.0 °F 70% 29.83 in 10.0 mi East 6.9 mph - N/A   Clear
11:52 AM 87.1 °F 96.3 °F 75.0 °F 67% 29.82 in 10.0 mi East 6.9 mph - N/A   Clear
12:52 PM 86.0 °F 96.0 °F 75.9 °F 72% 29.85 in 10.0 mi WNW 9.2 mph - N/A   Mostly Cloudy
1:52 PM 84.9 °F 93.3 °F 75.0 °F 72% 29.81 in 7.0 mi ESE 5.8 mph - 0.00 in Rain , Thunderstorm Light Rain
2:52 PM 90.0 °F 100.2 °F 75.0 °F 61% 29.80 in 10.0 mi SE 13.8 mph - 0.00 in   Scattered Clouds
3:52 PM 93.0 °F 99.0 °F 70.0 °F 47% 29.78 in 10.0 mi SSE 5.8 mph - N/A   Clear
4:52 PM 96.1 °F 101.0 °F 68.0 °F 40% 29.78 in 10.0 mi Calm Calm - N/A   Clear
5:52 PM 93.0 °F 95.9 °F 66.0 °F 41% 29.78 in 10.0 mi WSW 4.6 mph - N/A   Clear
6:52 PM 93.0 °F 96.4 °F 66.9 °F 42% 29.78 in 10.0 mi Calm Calm - N/A   Clear
7:52 PM 84.0 °F 90.2 °F 73.0 °F 69% 29.77 in 10.0 mi Calm Calm - N/A   Clear
8:52 PM 78.1 °F - 71.1 °F 79% 29.78 in 10.0 mi Calm Calm - N/A   Clear
9:52 PM 75.0 °F - 70.0 °F 84% 29.78 in 10.0 mi Calm Calm - N/A   Clear
10:52 PM 73.0 °F - 69.1 °F 87% 29.79 in 9.0 mi Calm Calm - N/A   Clear
11:52 PM 72.0 °F - 68.0 °F 87% 29.79 in 10.0 mi Calm Calm - N/A   Clear